Regional Weather Roundup
Issued by NWS

Home | Current Version | Previous Version | Graphics & Text | Print | Product List | Glossary On
Versions: 1 2 3 4 5 6 7 8 9 10 11 12 13 14 15 16 17 18 19 20 21 22 23 24 25 26 27 28 29 30 31 32 33 34 35 36 37 38 39 40 41 42 43 44 45 46 47 48 49 50
000
ASUS43 KOAX 281202
RWRNE

WEATHER ROUNDUP FOR NEBRASKA
NATIONAL WEATHER SERVICE OMAHA NE
700 AM CDT SUN MAY 28 2017

NOTES: SATELLITE DATA IS BEING USED TO AUGMENT CLOUD COVER ABOVE
       12000 FEET.
       "FAIR" INDICATES FEW OR NO CLOUDS BELOW 12,000 FEET WITH NO
       SIGNIFICANT WEATHER AND/OR OBSTRUCTIONS TO VISIBILITY.

  * THESE STATIONS DO NOT REPORT WEATHER SUCH AS RAIN...SNOW OR FOG.

NEZ001>004-019>022-054>056-281300-
NEBRASKA PANHANDLE

CITY           SKY/WX    TMP DP  RH WIND       PRES   REMARKS
SCOTTSBLUFF    CLEAR     42  38  85 NW7       30.16R
6HR MIN TEMP:  42; 6HR MAX TEMP:  47;

ALLIANCE       CLEAR     40  38  93 W9        30.11R WCI  34
6HR MIN TEMP:  38; 6HR MAX TEMP:  43;

CHADRON        MOCLDY    48  41  76 SW6       30.09R
6HR MIN TEMP:  44; 6HR MAX TEMP:  52;

GORDON         FAIR      49  41  72 W14       30.06R
6HR MIN TEMP:  45; 6HR MAX TEMP:  51;

KIMBALL        CLEAR     44  36  72 W12       30.20R
SIDNEY         PTCLDY    43  38  82 W12       30.17R
6HR MIN TEMP:  42; 6HR MAX TEMP:  45;

$$

NEZ057>060-069>072-079>082-281300-
SOUTHWEST NEBRASKA

CITY           SKY/WX    TMP DP  RH WIND       PRES   REMARKS
NORTH PLATTE   CLEAR     43  42  97 W6        30.07R
6HR MIN TEMP:  41; 6HR MAX TEMP:  47;

IMPERIAL       CLEAR     48  39  71 NW14      30.11R
6HR MIN TEMP:  48; 6HR MAX TEMP:  51;

LEXINGTON      CLEAR     49  45  87 W12       30.04R
MCCOOK         CLEAR     48  45  89 W13       30.07R
6HR MIN TEMP:  46; 6HR MAX TEMP:  52;

OGALLALA       CLEAR     48  42  79 SW7       30.11R
$$

NEZ005>010-023>029-035>040-094-281300-
NORTH CENTRAL NEBRASKA

CITY           SKY/WX    TMP DP  RH WIND       PRES   REMARKS
VALENTINE      CLEAR     48  43  82 W6        29.99R
6HR MIN TEMP:  45; 6HR MAX TEMP:  55;

AINSWORTH      CLEAR     52  46  78 W8        29.98R
BROKEN BOW     CLEAR     54  44  69 NW10      30.00R
6HR MIN TEMP:  53; 6HR MAX TEMP:  56;

O`NEILL        CLEAR     52  45  76 W8        29.95S
ORD            CLEAR     50  44  80 NW6       29.97R
6HR MIN TEMP:  46; 6HR MAX TEMP:  53;

THEDFORD       CLEAR     49  44  83 W10       30.03S
$$

NEZ041-046>049-061>064-073>077-083>087-281300-
SOUTH CENTRAL NEBRASKA

CITY           SKY/WX    TMP DP  RH WIND       PRES   REMARKS
GRAND ISLAND   CLEAR     53  49  86 W10       29.97R
6HR MIN TEMP:  52; 6HR MAX TEMP:  54;

AURORA         CLEAR     55  49  80 W12       29.96R
HASTINGS       CLEAR     54  47  77 W12       29.99R
6HR MIN TEMP:  52; 6HR MAX TEMP:  56;

HEBRON         CLEAR     55  51  87 W5        29.96R
HOLDREGE       CLEAR     52  44  75 W7        30.01R
KEARNEY *      CLEAR     54  43  66 W10       30.00R
YORK           CLEAR     55  50  82 NW13      29.95S
$$

NEZ011>018-030>034-042>045-281300-
NORTHEAST NEBRASKA

CITY           SKY/WX    TMP DP  RH WIND       PRES   REMARKS
NORFOLK        CLEAR     52  46  80 W8        29.91R
6HR MIN TEMP:  47; 6HR MAX TEMP:  53;

ALBION         CLEAR     52  46  79 NW8       29.94S
BLAIR          SUNNY     55  51  85 W5        29.89R
FREMONT        CLEAR     55  50  82 W9        29.90R
TEKAMAH        SUNNY     56  49  77 W5        29.88R
6HR MIN TEMP:  50; 6HR MAX TEMP:  59;

WAYNE          CLEAR     55  49  82 NW12      29.90R
$$

NEZ050>053-065>068-078-088>093-281300-
SOUTHEAST NEBRASKA

CITY           SKY/WX    TMP DP  RH WIND       PRES   REMARKS
LINCOLN        CLEAR     58  50  75 NW5       29.92F
6HR MIN TEMP:  52; 6HR MAX TEMP:  62;

OMAHA EPPLEY   MOSUNNY   57  51  80 CALM      29.89R
6HR MIN TEMP:  53; 6HR MAX TEMP:  60;

BEATRICE       CLEAR     54  52  94 W3        29.93S
FALLS CITY     SUNNY     57  53  86 NW5       29.91R
6HR MIN TEMP:  55; 6HR MAX TEMP:  60;

NEBRASKA CITY  SUNNY     56  53  88 SW7       29.90S
PLATTSMOUTH    SUNNY     57  53  86 W5        29.90R
$$

NEZ044-045-051>053-067-281300-
OMAHA AREA

CITY           SKY/WX    TMP DP  RH WIND       PRES   REMARKS
OMAHA EPPLEY   MOSUNNY   57  51  80 CALM      29.89R
6HR MIN TEMP:  53; 6HR MAX TEMP:  60;

BLAIR          SUNNY     55  51  85 W5        29.89R
FREMONT        CLEAR     55  50  82 W9        29.90R
MILLARD        SUNNY     55  54  94 CALM      29.90R
OFFUTT AFB     SUNNY     56  52  86 CALM      29.88S
PLATTSMOUTH    SUNNY     57  53  86 W5        29.90R
WAHOO          FAIR      56  49  77 NW7       29.91R
$$




USA.gov is the U.S. government's official web portal to all federal, state and local government web resources and services.